Del Rio, TX

10:57 AM CDT on August 18, 2017 (GMT -0500)
Del Rio International

Weather History for KDRT - September, 2012

Change the Weather History Date:

Sunday, September 16, 2012

  Actual Average Record
Temperature  
Mean Temperature 74 °F 80 °F  
Max Temperature 83 °F 91 °F 101 °F (1997)
Min Temperature 64 °F 70 °F 58 °F (1951)
Degree Days  
Heating Degree Days 0 0  
Month to date heating degree days 0 0  
Since 1 July heating degree days 0 0  
Cooling Degree Days 9 15  
Month to date cooling degree days 316 277  
Year to date cooling degree days 3463 2912  
Growing Degree Days 23 (Base 50)    
Moisture  
Dew Point 63 °F    
Average Humidity 74    
Maximum Humidity 100    
Minimum Humidity 47    
Precipitation  
Precipitation 0.66 in 0.06 in 3.20 in (1949)
Month to date precipitation 1.35 1.23  
Year to date precipitation 11.17 14.74  
Sea Level Pressure  
Sea Level Pressure 30.04 in    
Wind  
Wind Speed 4 mph (NNW)    
Max Wind Speed 12 mph    
Max Gust Speed 16 mph    
Visibility 7 miles    
Events Rain    
T = Trace of Precipitation, MM = Missing Value Source: NWS Daily Summary

Daily Weather History Graph

Daily Weather History Graph

Search for Another Location

Airport or City:

Trip Planner

Search our weather history database for the weather conditions in past years. The results will help you decide how hot, cold, wet, or windy it might be!

Date:

Astronomy

Sep. 16, 2012 Rise Set
Actual Time 7:29 AM CDT 7:46 PM CDT
Civil Twilight 7:05 AM CDT 8:10 PM CDT
Nautical Twilight 6:37 AM CDT 8:38 PM CDT
Astronomical Twilight 6:09 AM CDT 9:06 PM CDT
Moon 8:02 AM CDT (9/16) 8:03 PM CDT (9/16)
Length of Visible Light 13h 05m
Length of Day
12h 17m
New Moon, 0% of the Moon is Illuminated
Sep 16
New Moon
Sep 22
First Quarter
Sep 29
Full
Oct 8
Last Quarter
Oct 15
New

Hourly Weather History & Observations

Time (CDT) Temp. Heat Index Dew Point Humidity Pressure Visibility Wind Dir Wind Speed Gust Speed Precip Events Conditions
12:53 AM 64.9 °F - 64.0 °F 97% 30.12 in 7.0 mi WNW 4.6 mph - 0.11 in Rain Light Rain
1:53 AM 64.9 °F - 64.0 °F 97% 30.10 in 4.0 mi WNW 4.6 mph - 0.08 in Rain Light Rain
2:53 AM 64.0 °F - 63.0 °F 96% 30.09 in 4.0 mi NW 3.5 mph - 0.13 in Rain Light Rain
3:24 AM 64.4 °F - 62.6 °F 94% 30.11 in 10.0 mi Calm Calm - 0.02 in Rain Light Rain
3:53 AM 64.0 °F - 63.0 °F 96% 30.07 in 9.0 mi Calm Calm - 0.02 in Rain Light Rain
4:53 AM 64.0 °F - 63.0 °F 96% 30.06 in 6.0 mi Calm Calm - 0.06 in Rain Light Rain
5:10 AM 64.4 °F - 62.6 °F 94% 30.09 in 6.0 mi WNW 3.5 mph - 0.01 in Rain Light Rain
5:53 AM 64.0 °F - 62.1 °F 93% 30.06 in 5.0 mi WNW 4.6 mph - 0.08 in Rain Light Rain
6:53 AM 64.0 °F - 63.0 °F 96% 30.06 in 2.5 mi WNW 3.5 mph - 0.09 in Rain Rain
7:03 AM 64.4 °F - 62.6 °F 94% 30.09 in 4.0 mi WNW 4.6 mph - 0.02 in Rain Light Rain
7:14 AM 64.4 °F - 62.6 °F 94% 30.09 in 5.0 mi WNW 3.5 mph - 0.04 in Rain Light Rain
7:53 AM 64.0 °F - 63.0 °F 96% 30.06 in 2.5 mi Calm Calm - 0.11 in Rain Heavy Rain
8:08 AM 64.4 °F - 62.6 °F 94% 30.09 in 3.0 mi Calm Calm - 0.03 in Rain Light Rain
8:24 AM 64.4 °F - 62.6 °F 94% 30.09 in 4.0 mi Calm Calm - 0.04 in Rain Light Rain
8:53 AM 64.0 °F - 63.0 °F 96% 30.07 in 8.0 mi Calm Calm - 0.05 in Rain Light Rain
9:31 AM 64.4 °F - 62.6 °F 94% 30.10 in 2.0 mi Calm Calm - 0.02 in Rain Light Rain
9:42 AM 64.4 °F - 62.6 °F 94% 30.10 in 4.0 mi Calm Calm - 0.02 in Rain Light Rain
9:53 AM 64.9 °F - 63.0 °F 93% 30.07 in 3.0 mi Calm Calm - 0.03 in Rain Light Rain
9:59 AM 64.4 °F - 64.4 °F 100% 30.10 in 1.8 mi Calm Calm - 0.01 in Rain Light Rain
10:07 AM 64.4 °F - 64.4 °F 100% 30.10 in 3.0 mi WNW 4.6 mph - 0.01 in Rain Light Rain
10:53 AM 66.9 °F - 63.0 °F 87% 30.07 in 10.0 mi Calm Calm - 0.01 in   Overcast
11:10 AM 66.2 °F - 62.6 °F 88% 30.10 in 10.0 mi Calm Calm - N/A   Overcast
11:18 AM 66.2 °F - 62.6 °F 88% 30.10 in 10.0 mi Calm Calm - N/A   Mostly Cloudy
11:31 AM 68.0 °F - 64.4 °F 88% 30.09 in 10.0 mi Calm Calm - N/A   Mostly Cloudy
11:42 AM 69.8 °F - 64.4 °F 83% 30.09 in 10.0 mi Calm Calm - N/A   Mostly Cloudy
11:53 AM 70.0 °F - 63.0 °F 78% 30.06 in 10.0 mi Calm Calm - N/A   Mostly Cloudy
12:53 PM 72.0 °F - 63.0 °F 73% 30.03 in 10.0 mi Variable 3.5 mph - N/A   Scattered Clouds
1:53 PM 75.9 °F - 62.1 °F 62% 29.99 in 10.0 mi NNW 5.8 mph - N/A   Scattered Clouds
2:53 PM 80.1 °F 81.5 °F 63.0 °F 56% 29.96 in 10.0 mi Calm Calm - N/A   Partly Cloudy
3:53 PM 81.0 °F 81.6 °F 60.1 °F 49% 29.92 in 10.0 mi Calm Calm - N/A   Clear
4:53 PM 82.0 °F 83.0 °F 62.1 °F 51% 29.91 in 10.0 mi SE 6.9 mph - N/A   Clear
5:53 PM 82.9 °F 83.3 °F 61.0 °F 47% 29.90 in 10.0 mi East 4.6 mph - N/A   Clear
6:53 PM 81.0 °F 81.7 °F 61.0 °F 50% 29.89 in 10.0 mi East 4.6 mph - N/A   Partly Cloudy
7:53 PM 77.0 °F - 64.0 °F 64% 29.90 in 10.0 mi SE 9.2 mph - N/A   Clear
8:53 PM 75.0 °F - 64.9 °F 71% 29.91 in 10.0 mi ESE 6.9 mph - N/A   Clear
9:53 PM 73.0 °F - 66.9 °F 81% 29.93 in 10.0 mi ESE 6.9 mph - N/A   Clear
10:53 PM 71.1 °F - 66.9 °F 87% 29.94 in 10.0 mi ESE 8.1 mph - N/A   Clear
11:53 PM 70.0 °F - 66.9 °F 90% 29.94 in 10.0 mi ESE 6.9 mph - N/A   Clear